When you browse on this site, cookies collect data to enhance your experience and personalize the content and advertising you see.
Visit our Privacy Policy to learn more. By continuing to use the site, you agree to this use of cookies and data.
  • în România
  • Lista ţărilor
  • Pe 7 zile
  • Temperatura apei
  • Hartă satelitară
  • Meteo pe hartă
  • Widget-uri
  • user-avatar
    Intrare

    Meteo pe oră la Huánuco

    Astăzi, 20 Iulie, Sâmbătă

    Timp Temperatura Precipitaţii Vânt Presiune Umiditate
    00:00 +14°C° 0 mm 0 m/s 597 mmHg 88%
    01:00 +14°C° 0 mm 0 m/s 597 mmHg 86%
    02:00 +14°C° 0 mm 0 m/s 597 mmHg 85%
    03:00 +14°C° 0 mm 1 m/s 596 mmHg 85%
    04:00 +14°C° 0 mm 1 m/s 596 mmHg 84%
    05:00 +14°C° 0 mm 1 m/s 596 mmHg 82%
    06:00 +14°C° 0 mm 1 m/s 597 mmHg 80%
    07:00 +14°C° 0 mm 1 m/s 597 mmHg 79%
    08:00 +18°C° 0 mm 1 m/s 598 mmHg 70%
    09:00 +19°C° 0 mm 2 m/s 599 mmHg 62%
    10:00 +21°C° 0 mm 2 m/s 600 mmHg 54%
    11:00 +23°C° 0.1 mm 2 m/s 599 mmHg 55%
    12:00 +23°C° 0.1 mm 2 m/s 599 mmHg 55%
    13:00 +24°C° 0.1 mm 3 m/s 598 mmHg 56%
    14:00 +22°C° 0.2 mm 3 m/s 598 mmHg 59%
    15:00 +22°C° 0.2 mm 3 m/s 597 mmHg 63%
    16:00 +22°C° 0.2 mm 3 m/s 597 mmHg 66%
    17:00 +20°C° 0.1 mm 2 m/s 596 mmHg 76%
    18:00 +18°C° 0.1 mm 2 m/s 596 mmHg 85%
    19:00 +16°C° 0.1 mm 1 m/s 596 mmHg 94%
    20:00 +16°C° 0 mm 1 m/s 596 mmHg 94%
    21:00 +15°C° 0 mm 1 m/s 596 mmHg 93%
    22:00 +14°C° 0 mm 0 m/s 596 mmHg 93%
    23:00 +14°C° 0 mm 0 m/s 596 mmHg 92%

    Mâine, 21 Iulie, Duminică

    Timp Temperatura Precipitaţii Vânt Presiune Umiditate
    00:00 +14°C° 0 mm 1 m/s 596 mmHg 91%
    01:00 +14°C° 0 mm 1 m/s 596 mmHg 90%
    02:00 +14°C° 0 mm 1 m/s 595 mmHg 89%
    03:00 +14°C° 0 mm 1 m/s 595 mmHg 88%
    04:00 +13°C° 0 mm 1 m/s 595 mmHg 87%
    05:00 +14°C° 0 mm 1 m/s 595 mmHg 86%
    06:00 +14°C° 0 mm 1 m/s 596 mmHg 85%
    07:00 +15°C° 0 mm 1 m/s 597 mmHg 83%
    08:00 +18°C° 0 mm 1 m/s 598 mmHg 76%
    09:00 +20°C° 0 mm 1 m/s 598 mmHg 68%
    10:00 +21°C° 0 mm 2 m/s 599 mmHg 60%
    11:00 +23°C° 0.2 mm 2 m/s 599 mmHg 59%
    12:00 +24°C° 0.2 mm 3 m/s 599 mmHg 58%
    13:00 +24°C° 0.2 mm 3 m/s 598 mmHg 57%
    14:00 +24°C° 0.2 mm 3 m/s 598 mmHg 60%
    15:00 +24°C° 0.2 mm 3 m/s 597 mmHg 62%
    16:00 +22°C° 0.2 mm 3 m/s 596 mmHg 64%
    17:00 +21°C° 0 mm 2 m/s 596 mmHg 74%
    18:00 +19°C° 0 mm 2 m/s 596 mmHg 84%
    19:00 +18°C° 0 mm 1 m/s 596 mmHg 95%
    20:00 +16°C° 0 mm 1 m/s 596 mmHg 95%
    21:00 +16°C° 0 mm 1 m/s 596 mmHg 94%
    22:00 +16°C° 0 mm 1 m/s 597 mmHg 94%
    23:00 +16°C° 0 mm 1 m/s 596 mmHg 93%

    Poimâine, 22 Iulie, Luni

    Timp Temperatura Precipitaţii Vânt Presiune Umiditate
    00:00 +16°C° 0 mm 1 m/s 596 mmHg 91%
    01:00 +14°C° 0 mm 0 m/s 596 mmHg 90%
    02:00 +15°C° 0 mm 1 m/s 596 mmHg 89%
    03:00 +15°C° 0 mm 1 m/s 596 mmHg 88%
    04:00 +15°C° 0 mm 1 m/s 595 mmHg 87%
    05:00 +15°C° 0 mm 1 m/s 596 mmHg 86%
    06:00 +15°C° 0 mm 1 m/s 596 mmHg 85%
    07:00 +14°C° 0 mm 0 m/s 597 mmHg 85%
    08:00 +18°C° 0 mm 1 m/s 598 mmHg 77%
    09:00 +20°C° 0 mm 1 m/s 598 mmHg 69%
    10:00 +21°C° 0 mm 2 m/s 599 mmHg 62%
    11:00 +23°C° 0.4 mm 2 m/s 599 mmHg 62%
    12:00 +22°C° 0.4 mm 3 m/s 599 mmHg 63%
    13:00 +24°C° 0.4 mm 3 m/s 598 mmHg 64%
    14:00 +22°C° 0.5 mm 3 m/s 598 mmHg 66%
    15:00 +22°C° 0.5 mm 3 m/s 597 mmHg 69%
    16:00 +22°C° 0.5 mm 3 m/s 596 mmHg 71%
    17:00 +20°C° 0.1 mm 2 m/s 596 mmHg 79%
    18:00 +18°C° 0.1 mm 2 m/s 596 mmHg 86%
    19:00 +18°C° 0.1 mm 1 m/s 596 mmHg 94%
    20:00 +16°C° 0 mm 1 m/s 596 mmHg 94%
    21:00 +16°C° 0 mm 1 m/s 596 mmHg 94%
    22:00 +15°C° 0 mm 0 m/s 597 mmHg 94%
    23:00 +15°C° 0 mm 0 m/s 596 mmHg 93%

    23 Iulie, Marţi

    Timp Temperatura Precipitaţii Vânt Presiune Umiditate
    00:00 +14°C° 0 mm 0 m/s 596 mmHg 92%
    01:00 +15°C° 0 mm 1 m/s 596 mmHg 91%
    02:00 +14°C° 0 mm 0 m/s 596 mmHg 91%
    03:00 +14°C° 0 mm 0 m/s 596 mmHg 90%
    04:00 +14°C° 0 mm 0 m/s 595 mmHg 90%
    05:00 +15°C° 0 mm 0 m/s 596 mmHg 88%
    06:00 +15°C° 0 mm 0 m/s 597 mmHg 87%
    07:00 +16°C° 0 mm 0 m/s 597 mmHg 86%
    08:00 +17°C° 0.1 mm 0 m/s 598 mmHg 83%
    09:00 +20°C° 0.1 mm 1 m/s 598 mmHg 79%
    10:00 +20°C° 0.1 mm 1 m/s 599 mmHg 76%
    11:00 +20°C° 0.4 mm 2 m/s 599 mmHg 73%
    12:00 +23°C° 0.4 mm 2 m/s 598 mmHg 69%
    13:00 +24°C° 0.4 mm 3 m/s 598 mmHg 66%
    14:00 +22°C° 0.5 mm 3 m/s 597 mmHg 69%
    15:00 +22°C° 0.5 mm 3 m/s 597 mmHg 71%
    16:00 +21°C° 0.5 mm 3 m/s 596 mmHg 74%
    17:00 +20°C° 0.2 mm 3 m/s 596 mmHg 82%
    18:00 +18°C° 0.2 mm 2 m/s 596 mmHg 89%
    19:00 +18°C° 0.2 mm 1 m/s 596 mmHg 96%
    20:00 +16°C° 0 mm 1 m/s 596 mmHg 96%
    21:00 +16°C° 0 mm 1 m/s 596 mmHg 95%
    22:00 +15°C° 0 mm 0 m/s 597 mmHg 95%
    23:00 +15°C° 0 mm 0 m/s 597 mmHg 94%

    24 Iulie, Miercuri

    Timp Temperatura Precipitaţii Vânt Presiune Umiditate
    00:00 +14°C° 0 mm 0 m/s 596 mmHg 93%
    01:00 +14°C° 0 mm 0 m/s 596 mmHg 93%
    02:00 +14°C° 0 mm 0 m/s 596 mmHg 92%
    03:00 +14°C° 0 mm 0 m/s 596 mmHg 91%
    04:00 +14°C° 0 mm 0 m/s 595 mmHg 90%
    05:00 +14°C° 0 mm 0 m/s 596 mmHg 89%
    06:00 +15°C° 0 mm 0 m/s 596 mmHg 89%
    07:00 +15°C° 0 mm 0 m/s 597 mmHg 88%
    08:00 +18°C° 0.1 mm 1 m/s 597 mmHg 84%
    09:00 +19°C° 0.1 mm 1 m/s 598 mmHg 80%
    10:00 +20°C° 0.1 mm 2 m/s 599 mmHg 76%
    11:00 +20°C° 0.3 mm 2 m/s 598 mmHg 74%
    12:00 +21°C° 0.3 mm 2 m/s 598 mmHg 72%
    13:00 +21°C° 0.3 mm 3 m/s 598 mmHg 70%
    14:00 +21°C° 0.1 mm 3 m/s 597 mmHg 70%
    15:00 +21°C° 0.1 mm 3 m/s 597 mmHg 69%
    16:00 +21°C° 0.1 mm 3 m/s 596 mmHg 69%
    17:00 +20°C° 0.1 mm 2 m/s 596 mmHg 77%
    18:00 +18°C° 0.1 mm 2 m/s 596 mmHg 85%
    19:00 +18°C° 0.1 mm 1 m/s 596 mmHg 93%
    20:00 +16°C° 0.1 mm 1 m/s 596 mmHg 94%
    21:00 +15°C° 0.1 mm 0 m/s 596 mmHg 95%
    22:00 +14°C° 0.1 mm 0 m/s 597 mmHg 95%
    23:00 +15°C° 0 mm 0 m/s 597 mmHg 94%

    25 Iulie, Joi

    Timp Temperatura Precipitaţii Vânt Presiune Umiditate
    00:00 +15°C° 0 mm 0 m/s 597 mmHg 94%
    01:00 +15°C° 0 mm 0 m/s 596 mmHg 93%
    02:00 +15°C° 0.1 mm 0 m/s 596 mmHg 92%
    03:00 +15°C° 0.1 mm 0 m/s 596 mmHg 92%
    04:00 +15°C° 0.1 mm 0 m/s 596 mmHg 92%
    05:00 +15°C° 0.3 mm 0 m/s 596 mmHg 92%
    06:00 +15°C° 0.3 mm 0 m/s 597 mmHg 92%
    07:00 +15°C° 0.3 mm 0 m/s 597 mmHg 91%
    08:00 +15°C° 0.9 mm 0 m/s 598 mmHg 91%
    09:00 +18°C° 0.9 mm 1 m/s 598 mmHg 90%
    10:00 +18°C° 0.9 mm 1 m/s 598 mmHg 90%
    11:00 +18°C° 0.9 mm 1 m/s 598 mmHg 89%
    12:00 +18°C° 0.9 mm 1 m/s 597 mmHg 88%
    13:00 +18°C° 0.9 mm 1 m/s 597 mmHg 87%
    14:00 +19°C° 0.1 mm 1 m/s 597 mmHg 82%
    15:00 +19°C° 0.1 mm 2 m/s 597 mmHg 78%
    16:00 +20°C° 0.1 mm 2 m/s 596 mmHg 73%
    17:00 +19°C° 0.1 mm 2 m/s 596 mmHg 80%
    18:00 +17°C° 0.1 mm 2 m/s 596 mmHg 88%
    19:00 +16°C° 0.1 mm 1 m/s 596 mmHg 95%
    20:00 +16°C° 0.1 mm 1 m/s 597 mmHg 96%
    21:00 +16°C° 0.1 mm 1 m/s 597 mmHg 96%
    22:00 +16°C° 0.1 mm 1 m/s 597 mmHg 97%
    23:00 +16°C° 0 mm 1 m/s 597 mmHg 96%
    Arată mai mult